"Pseudo-MPEC" for C370K42

Created 2020 Sep 22 2:07:04 UT using Find_Orb

Click here for an explanation of pseudo-MPECs

 
 Astrometry: 
     C370K42  C2020 09 15.42287 01 29 00.33 -14 40 39.0    ~9FBq 20.2 GVNEOCPG96
     C370K42  C2020 09 15.42805 01 29 00.06 -14 40 39.1    ~9FBq 21.1 GVNEOCPG96
     C370K42  C2020 09 15.43320 01 28 59.65 -14 40 39.9    ~9FBq 20.2 GVNEOCPG96
     C370K42  C2020 09 15.43836 01 28 59.33 -14 40 39.4    ~9FBq 20.3 GVNEOCPG96
     C370K42 1C2020 09 15iMy`IrA9qHaGlYw?ULpbe,=PR(6PA%#t@Ll;N+gveNxW-OQ!!%f.246
     C370K42 1C2020 09 15Bp:Astrometry%aj@nt`@AVILCElKw#YL.O'0TGrQr2VYVyJ*:EK246
     C370K42 1C2020 09 15pnR9mDdk!wqdMSt[l2rXh+4x+_)E*Tox`bk^L6`$bJ+;xfoDSBuM246
     C370K42  C2020 09 16.29330 01 28 04.06 -14 40 13.3    ~9G7b       VNEOCPI52
     C370K42  C2020 09 16.29676 01 28 03.75 -14 40 12.7    ~9G7b 19.6 GVNEOCPI52
     C370K42  C2020 09 16.30022 01 28 03.47 -14 40 11.2    ~9G7b 20.9 GVNEOCPI52
     C370K42  C2020 09 16.30368 01 28 03.24 -14 40 11.8    ~9G7b 20.5 GVNEOCPI52
     C370K42 1C2020 09 166t2OW1Ye1LhW0oGJM/tX$LxtpQLMC=!VlXgCH7I6nZ+*X%Yj*+C$Q62
     C370K42 1C2020 09 16VNt\U=yVMFhoLf==5S2I9(TKagpkL9I\gw?CoSBB7jbT.wbt!!V/Q62
     C370K42 KC2020 09 17=vvcH5f+Wd$T3v-U;)G+kUmC=gDrwSy;OuXQeD6Bb:Pu7]+RAR72711
     C370K42 KC2020 09 17-_/%LSw$`P?iQAEO1A8qgqTr#Oredacted;$:bfSKkYB*?M#/S.*711
     C370K42 IC2020 09 17R]osOuj=lDiINn64q;%wt![:N8#[F-3^,3RP*xOtH#BfmV].55)j711
     C370K42  C2020 09 17Jw?cTc-BGc(5;Y?:.mb1i($Eef4o%KlxhFR+SN-qWBfj;x/BcxJAF52
     C370K42  C2020 09 17xjclick-fj#koIC7pPC#$PN5L;%guWP@OBa'fIG1L9O\ryf;WkE+F52
     C370K42  C2020 09 17ZqF`^vq5n86Sy#F4(9n2Pf1[BaNBwN(6Jy%kC/yvfUBT^6JfC5($F52
     C370K42  C2020 09 19.30026 01 24 45.81 -14 38 15.8    ~9J7q 20.8 GVNEOCPI52
     C370K42  C2020 09 19.30340 01 24 45.66 -14 38 15.3    ~9J7q 20.9 GVNEOCPI52
     C370K42  C2020 09 19.30654 01 24 45.44 -14 38 14.8    ~9J7q 20.4 GVNEOCPI52
     C370K42  C2020 09 19.30968 01 24 45.26 -14 38 14.6    ~9J7q 20.3 GVNEOCPI52
     C370K42 hC2020 09 19XD_`f\4HL9GQ1mNtFJ`!Gn9]qc#:y_r1)Wqon_=@R?rdf^2Ky3LmL01
     C370K42 hC2020 09 20McjfXC%QT/b%XVevwqoI[[ItmNMZT@herea=9R]quc*Le/*ANZrFL01
     C370K42 hC2020 09 20OA[dE/1M6l(WSyJ_7A5x?c(0^1k11t,F_QVpYla#p:M/QID+Gc1dL01
     C370K42 KC2020 09 20FBWgghat4%Dq^k3yH]:PmkS7wTU.r!*t2qbT36h3;g^2ry4/mdV_W73
     C370K42 KC2020 09 20=H6KforWDC2)rD4xgJ@!ea_?s1?.u2LQKDSao0`9BiefCy1I_fh%W73
     C370K42 KC2020 09 20.tk'\fmbq?,KZV5@IXc4xa3qL608$0q2^b9@Na]i%:y:5HLx6%9IW73
     C370K42  C2020 09 20.38399 01 23 33.52 -14 37 23.4    ~9KAM 20.9 GVNEOCPI52
     C370K42  C2020 09 20.39950 01 23 32.47 -14 37 22.9    ~9KAM 20.8 GVNEOCPI52
     C370K42  C2020 09 20.40942 01 23 31.71 -14 37 23.7    ~9KAM 20.9 GVNEOCPI52
     C370K42  C2020 09 20.41317 01 23 31.55 -14 37 22.9    ~9KAM 20.0 GVNEOCPI52
     C370K42 2C2020 09 20ve_,WdOP!7Du@+X@ey%!explanation9:$@m:E,AL#')AC2Lx$ptJ04

Station data:
(246) Klet Observatory-KLENOT  (N48.863293 E14.288100)  Czech Republic.
   1.06-m KLENOT telescope.
(711) McDonald Observatory, Fort Davis  (N30.671481 W104.021500)  US/Texas.
   0.76-m f/3.0 reflector.
(F52) Pan-STARRS 2, Haleakala  (N20.707384 W156.255910)  US/Hawaii. 1.8-m
   Ritchey-Chrétien + CCD.
(G96) Mt. Lemmon Survey  (N32.442754 W110.788720)  US/Arizona.  Observers T.
   A. Pruyne, B. M. Africano, E. J. Christensen, G. A. Farneth, D. C. Fuls,
   A. R. Gibbs, A. D. Grauer, H. Gröller, J. A. Johnson, R. A. Kowalski, S.
   M. Larson, G. J. Leonard, D. Rankin, R. L. Seaman, F. C. Shelly. 1.5-m
   reflector + 10K CCD.
(I52) Steward Observatory, Mt. Lemmon Station  (N32.442547 W110.788920)
   US/Arizona.  Observers T. A. Pruyne, B. M. Africano, E. J. Christensen, G.
   A. Farneth, D. C. Fuls, A. R. Gibbs, A. D. Grauer, H. Gröller, J. A.
   Johnson, R. A. Kowalski, S. M. Larson, G. J. Leonard, D. Rankin, R. L.
   Seaman, F. C. Shelly. 1.0-m reflector + CCD.
(J04) ESA Optical Ground Station, Tenerife  (N28.300924 W16.511830)  Canary
   Islands (Spain).  Observer D. Abreu. Measurers M. Micheli, D. Koschny, E.
   Schwab, M. Busch, A. Knöfel. 1.0-m f/4.4 reflector + CCD.
(L01) Višnjan Observatory, Tičan  (N45.290900 E13.749300)  Croatia.
   Observers K. Korlević, E. Pettarin. Measurer E. Pettarin. 1.0-m f/2.9
   reflector + CCD.
(Q62) iTelescope Observatory, Siding Spring  (S31.273289 E149.064420)
   Australia/NSW. 0.50-m f/6.8 astrograph + CCD + focal reducer, 0.70-m f/6.6
   astrograph + CCD.
(W73) Observatorio Astronomico de Moquegua, Carumas  (S16.828157 W70.678440)
   Peru.

Orbital elements:  C370K42
   Perihelion 2019 Sep 8.469250 TT = 11:15:43 (JD 2458734.969250)
Epoch 2020 Sep 20.0 TT = JDT 2459112.5   Ju: 0.1582           AutoNEOCP
M   1.34442984                      (J2000 ecliptic)
n   0.00356111     Peri.  265.71784
a  42.4696655      Node    13.48010
e   0.9330866      Incl.   78.24715
P 276.77           H   14.3     G   0.15   q 2.84178850  Q 82.0975425
From 34 observations 2020 Sept. 15-20; mean residual 1".16
Residuals in arcseconds: 
200915 G96  1.2-  .02-    200916 Q62  .41-  .56+    200920 L01  .24-  .50+    
200915 G96  .21-  .28-    200917 711  1.6-  .02+    200920 L01  .02+  .60-    
200915 G96  1.3-  1.2-    200917 711  1.9-  .48+    200920 W73  .57+  .36+    
200915 G96  1.0-  .89-    200917 711  1.0-  .55+    200920 W73  .58+  .10-    
200915 246  5.9+  .28+    200917 F52  .59-  .54+    200920 W73  .29+  .34+    
200915 246  4.6+  .85-    200917 F52  .75-  1.2+    200920 I52  .65+  .03+    
200915 246  .85+  .60+    200917 F52  .67-  .94+    200920 I52  .68+  .27-    
200916 I52  .87+  1.1-    200919 I52  1.2-  .34-    200920 I52  .58-  1.6-    
200916 I52  .32-  .57-    200919 I52  .31-  .02+    200920 I52  .79+  .97-    
200916 I52  1.1-  .83+    200919 I52  .44-  .38+    200920 J04  .76+  .01+    
200916 I52  1.1-  .12+    200919 I52  .02+  .44+    
200916 Q62  .50-  .23+    200919 L01  .18-  .35+    

Ephemerides (geocentric):
Date (UTC) HH   RA              Dec         delta   r     elong  mag
---- -- -- --  -------------   -----------  ------ ------ -----  ---
2020 09 22 02  01 21 39.209   -14 35 48.66  3.6128 4.5406 154.7 20.8
2020 09 22 03  01 21 36.395   -14 35 46.20  3.6129 4.5408 154.7 20.8
2020 09 22 04  01 21 33.581   -14 35 43.74  3.6130 4.5411 154.8 20.8
2020 09 22 05  01 21 30.766   -14 35 41.26  3.6131 4.5414 154.8 20.8
2020 09 22 06  01 21 27.951   -14 35 38.77  3.6132 4.5417 154.8 20.8
2020 09 22 07  01 21 25.135   -14 35 36.28  3.6133 4.5420 154.9 20.8
2020 09 22 08  01 21 22.318   -14 35 33.78  3.6134 4.5422 154.9 20.8
2020 09 22 09  01 21 19.501   -14 35 31.27  3.6135 4.5425 154.9 20.8
2020 09 22 10  01 21 16.684   -14 35 28.75  3.6136 4.5428 155.0 20.8
2020 09 22 11  01 21 13.866   -14 35 26.22  3.6137 4.5431 155.0 20.8
2020 09 22 12  01 21 11.047   -14 35 23.68  3.6138 4.5434 155.0 20.8
2020 09 22 13  01 21 08.229   -14 35 21.14  3.6140 4.5436 155.0 20.8
2020 09 22 14  01 21 05.409   -14 35 18.58  3.6141 4.5439 155.1 20.8
2020 09 22 15  01 21 02.589   -14 35 16.02  3.6142 4.5442 155.1 20.8
2020 09 22 16  01 20 59.769   -14 35 13.44  3.6143 4.5445 155.1 20.8
2020 09 22 17  01 20 56.948   -14 35 10.86  3.6144 4.5447 155.2 20.8
2020 09 22 18  01 20 54.126   -14 35 08.27  3.6145 4.5450 155.2 20.8
2020 09 22 19  01 20 51.305   -14 35 05.67  3.6146 4.5453 155.2 20.8
2020 09 22 20  01 20 48.482   -14 35 03.07  3.6147 4.5456 155.3 20.8
2020 09 22 21  01 20 45.659   -14 35 00.45  3.6149 4.5459 155.3 20.8
2020 09 22 22  01 20 42.836   -14 34 57.82  3.6150 4.5461 155.3 20.8
2020 09 22 23  01 20 40.012   -14 34 55.19  3.6151 4.5464 155.3 20.8
2020 09 23 00  01 20 37.188   -14 34 52.55  3.6152 4.5467 155.4 20.8
2020 09 23 01  01 20 34.363   -14 34 49.89  3.6153 4.5470 155.4 20.8
2020 09 23 02  01 20 31.538   -14 34 47.23  3.6154 4.5472 155.4 20.8
2020 09 23 03  01 20 28.712   -14 34 44.56  3.6156 4.5475 155.5 20.8
2020 09 23 04  01 20 25.886   -14 34 41.88  3.6157 4.5478 155.5 20.8
2020 09 23 05  01 20 23.060   -14 34 39.20  3.6158 4.5481 155.5 20.8
2020 09 23 06  01 20 20.233   -14 34 36.50  3.6159 4.5484 155.6 20.8
2020 09 23 07  01 20 17.405   -14 34 33.79  3.6161 4.5486 155.6 20.8
2020 09 23 08  01 20 14.577   -14 34 31.08  3.6162 4.5489 155.6 20.8
2020 09 23 09  01 20 11.749   -14 34 28.36  3.6163 4.5492 155.6 20.8
2020 09 23 10  01 20 08.920   -14 34 25.62  3.6164 4.5495 155.7 20.8
2020 09 23 11  01 20 06.091   -14 34 22.88  3.6165 4.5497 155.7 20.8
2020 09 23 12  01 20 03.261   -14 34 20.13  3.6167 4.5500 155.7 20.8
2020 09 23 13  01 20 00.431   -14 34 17.37  3.6168 4.5503 155.8 20.8
2020 09 23 14  01 19 57.601   -14 34 14.61  3.6169 4.5506 155.8 20.8
2020 09 23 15  01 19 54.770   -14 34 11.83  3.6170 4.5509 155.8 20.8
2020 09 23 16  01 19 51.938   -14 34 09.04  3.6172 4.5511 155.8 20.8
2020 09 23 17  01 19 49.106   -14 34 06.25  3.6173 4.5514 155.9 20.8
2020 09 23 18  01 19 46.274   -14 34 03.44  3.6174 4.5517 155.9 20.8
2020 09 23 19  01 19 43.441   -14 34 00.63  3.6176 4.5520 155.9 20.8
2020 09 23 20  01 19 40.608   -14 33 57.81  3.6177 4.5523 156.0 20.8
2020 09 23 21  01 19 37.775   -14 33 54.98  3.6178 4.5525 156.0 20.8
2020 09 23 22  01 19 34.941   -14 33 52.13  3.6179 4.5528 156.0 20.8
2020 09 23 23  01 19 32.107   -14 33 49.29  3.6181 4.5531 156.0 20.8
2020 09 24 00  01 19 29.272   -14 33 46.43  3.6182 4.5534 156.1 20.8
2020 09 24 01  01 19 26.437   -14 33 43.56  3.6183 4.5536 156.1 20.8